Location: Crni Vrh Observatory
(45.9460°N, 14.0712°E)
Time: 12:58:14
(UTC+02:00)

Envisat - Visible Passes

Search period start: 08 May 2026 00:00
Search period end: 18 May 2026 00:00
Orbit: 761 x 762 km, 98.4° (Epoch: 7 May)

Date Brightness Start Highest point End Pass type
(mag) Time Alt. Az. Time Alt. Az. Time Alt. Az.
8 May 3.1 03:42:38 10° NNE 03:47:44 77° ESE 03:51:16 20° S visible
9 May 4.2 03:05:07 10° NNE 03:09:46 35° E 03:13:04 17° SSE visible
9 May 3.9 04:44:09 10° N 04:48:38 32° WNW 04:53:05 10° SW visible
10 May 5.3 02:28:25 10° NE 02:31:36 17° E 02:34:46 10° SE visible
10 May 3.0 04:05:58 10° N 04:11:01 67° WNW 04:15:00 16° SSW visible
11 May 3.5 03:28:10 10° NNE 03:33:11 57° E 03:36:47 19° S visible
12 May 4.7 02:50:54 10° NE 02:55:09 26° E 02:58:35 14° SE visible
12 May 3.6 04:29:27 10° N 04:34:13 42° WNW 04:38:43 11° SW visible
13 May 5.5 02:14:56 10° ENE 02:16:54 12° E 02:18:50 10° ESE visible
13 May 3.0 03:51:25 10° NNE 03:56:31 89° WNW 04:00:31 17° SSW visible
14 May 3.9 03:13:47 10° NNE 03:18:36 42° E 03:22:18 16° SSE visible
14 May 4.2 04:53:06 10° N 04:57:20 27° WNW 05:01:34 10° WSW visible
15 May 5.0 02:36:49 10° NE 02:40:30 20° E 02:44:05 10° SE visible
15 May 3.2 04:14:48 10° N 04:19:46 56° WNW 04:24:13 13° SSW visible
16 May 3.2 03:36:55 10° NNE 03:41:59 69° ESE 03:46:00 16° S visible
17 May 4.4 02:59:29 10° NNE 03:04:00 32° E 03:07:47 13° SSE visible
17 May 3.8 04:38:21 10° N 04:42:57 36° WNW 04:47:30 10° SW visible
